Time,TemperatureF,DewpointF,PressureIn,WindDirection,WindDirectionDegrees,WindSpeedMPH,WindSpeedGustMPH,Humidity,HourlyPrecipIn,Conditions,Clouds,dailyrainin,SoftwareType,DateUTC
2013-09-25 00:00:00,49.8,48.4,29.96,NW,323,0.0,0.0,95,0.00,,---,0.00,VWS V14.01,2013-09-25 04:00:00,
2013-09-25 00:10:00,49.3,47.9,29.96,NW,323,0.0,0.0,95,0.00,,---,0.00,VWS V14.01,2013-09-25 04:10:00,
2013-09-25 00:20:00,49.0,47.6,29.96,NW,323,0.0,0.0,95,0.00,,---,0.00,VWS V14.01,2013-09-25 04:20:00,
2013-09-25 04:05:00,44.7,43.6,29.92,WSW,246,0.0,0.0,96,0.00,,---,0.00,VWS V14.01,2013-09-25 08:05:00,
2013-09-25 04:06:00,44.7,43.6,29.92,WSW,246,0.0,0.0,96,0.00,,---,0.00,VWS V14.01,2013-09-25 08:06:00,
2013-09-25 04:10:00,44.7,43.6,29.92,WSW,246,0.0,0.0,96,0.00,,---,0.00,VWS V14.01,2013-09-25 08:10:00,
2013-09-25 04:11:00,44.7,43.6,29.92,WSW,246,0.0,0.0,96,0.00,,---,0.00,VWS V14.01,2013-09-25 08:11:00,
2013-09-25 04:16:00,44.7,43.6,29.92,WSW,246,0.0,0.0,96,0.00,,---,0.00,VWS V14.01,2013-09-25 08:16:00,
2013-09-25 04:20:00,44.7,43.6,29.92,WSW,246,0.0,0.0,96,0.00,,---,0.00,VWS V14.01,2013-09-25 08:20:00,
2013-09-25 04:21:00,44.7,43.6,29.91,WSW,246,0.0,0.0,96,0.00,,---,0.00,VWS V14.01,2013-09-25 08:21:00,
2013-09-25 04:26:00,44.6,43.5,29.91,WSW,246,0.0,0.0,96,0.00,,---,0.00,VWS V14.01,2013-09-25 08:26:00,
2013-09-25 04:30:00,44.6,43.5,29.91,WSW,246,0.0,0.0,96,0.00,,---,0.00,VWS V14.01,2013-09-25 08:30:00,
2013-09-25 04:31:00,44.5,43.4,29.91,WSW,246,0.0,0.0,96,0.00,,---,0.00,VWS V14.01,2013-09-25 08:31:00,
2013-09-25 04:36:00,44.5,43.4,29.91,WSW,246,0.0,0.0,96,0.00,,---,0.00,VWS V14.01,2013-09-25 08:36:00,
2013-09-25 04:40:00,44.5,43.4,29.91,WSW,246,0.0,0.0,96,0.00,,---,0.00,VWS V14.01,2013-09-25 08:40:00,
2013-09-25 04:41:00,44.7,43.6,29.91,WSW,246,0.0,0.0,96,0.00,,---,0.00,VWS V14.01,2013-09-25 08:41:00,
2013-09-25 04:46:00,44.7,43.6,29.91,WSW,246,0.0,0.0,96,0.00,,---,0.00,VWS V14.01,2013-09-25 08:46:00,
2013-09-25 04:50:00,44.8,43.7,29.91,WSW,246,0.0,0.0,96,0.00,,---,0.00,VWS V14.01,2013-09-25 08:50:00,
2013-09-25 04:51:00,44.8,43.7,29.91,WSW,246,0.0,0.0,96,0.00,,---,0.00,VWS V14.01,2013-09-25 08:51:00,
2013-09-25 04:56:00,44.9,43.8,29.90,WSW,246,0.0,0.0,96,0.00,,---,0.00,VWS V14.01,2013-09-25 08:56:00,
2013-09-25 05:00:00,44.9,43.8,29.90,WSW,246,0.0,0.0,96,0.00,,---,0.00,VWS V14.01,2013-09-25 09:00:00,
2013-09-25 05:01:00,44.9,43.8,29.90,WSW,246,0.0,0.0,96,0.00,,---,0.00,VWS V14.01,2013-09-25 09:01:00,
2013-09-25 05:06:00,45.0,43.9,29.90,WSW,248,0.0,0.0,96,0.00,,---,0.00,VWS V14.01,2013-09-25 09:06:00,
2013-09-25 05:10:00,45.0,43.9,29.90,WNW,284,0.0,0.0,96,0.00,,---,0.00,VWS V14.01,2013-09-25 09:10:00,
2013-09-25 05:11:00,45.1,44.0,29.90,NW,315,0.0,0.0,96,0.00,,---,0.00,VWS V14.01,2013-09-25 09:11:00,
2013-09-25 05:16:00,45.3,44.2,29.90,NNW,344,0.0,0.0,96,0.00,,---,0.00,VWS V14.01,2013-09-25 09:16:00,
2013-09-25 05:20:00,45.4,44.3,29.90,NNW,344,0.0,0.0,96,0.00,,---,0.00,VWS V14.01,2013-09-25 09:20:00,
2013-09-25 05:21:00,45.5,44.4,29.90,NNW,344,0.0,0.0,96,0.00,,---,0.00,VWS V14.01,2013-09-25 09:21:00,
2013-09-25 05:26:00,45.6,44.5,29.90,NW,317,0.0,0.0,96,0.00,,---,0.00,VWS V14.01,2013-09-25 09:26:00,
2013-09-25 05:30:00,45.9,44.8,29.89,SSE,156,0.0,0.0,96,0.00,,---,0.00,VWS V14.01,2013-09-25 09:30:00,
2013-09-25 05:31:00,45.8,44.7,29.90,SSE,155,0.0,0.0,96,0.00,,---,0.00,VWS V14.01,2013-09-25 09:31:00,
2013-09-25 05:36:00,45.6,44.5,29.90,SSE,155,0.0,0.0,96,0.00,,---,0.00,VWS V14.01,2013-09-25 09:36:00,
2013-09-25 05:40:00,45.7,44.6,29.90,West,276,0.0,0.0,96,0.00,,---,0.00,VWS V14.01,2013-09-25 09:40:00,
2013-09-25 05:41:00,45.8,44.7,29.90,West,276,0.0,0.0,96,0.00,,---,0.00,VWS V14.01,2013-09-25 09:41:00,
2013-09-25 05:46:00,46.1,45.0,29.90,SSE,159,0.0,0.0,96,0.00,,---,0.00,VWS V14.01,2013-09-25 09:46:00,
2013-09-25 05:50:00,46.0,44.9,29.90,SSE,159,0.0,0.0,96,0.00,,---,0.00,VWS V14.01,2013-09-25 09:50:00,
2013-09-25 05:51:00,45.9,44.8,29.90,SSE,161,0.0,0.0,96,0.00,,---,0.00,VWS V14.01,2013-09-25 09:51:00,
2013-09-25 05:56:00,46.1,45.0,29.90,ESE,117,0.0,0.0,96,0.00,,---,0.00,VWS V14.01,2013-09-25 09:56:00,
2013-09-25 06:00:00,46.0,44.9,29.90,ESE,117,0.0,0.0,96,0.00,,---,0.00,VWS V14.01,2013-09-25 10:00:00,
2013-09-25 06:01:00,45.9,44.8,29.90,SSE,159,0.0,0.0,96,0.00,,---,0.00,VWS V14.01,2013-09-25 10:01:00,
2013-09-25 06:06:00,45.7,44.3,29.90,SSE,160,0.0,0.0,95,0.00,,---,0.00,VWS V14.01,2013-09-25 10:06:00,
2013-09-25 06:10:00,45.7,44.3,29.90,SSE,160,0.0,0.0,95,0.00,,---,0.00,VWS V14.01,2013-09-25 10:10:00,
2013-09-25 06:11:00,45.5,44.2,29.90,SSE,161,0.0,0.0,95,0.00,,---,0.00,VWS V14.01,2013-09-25 10:11:00,
2013-09-25 06:16:00,45.5,44.2,29.90,SSE,160,0.0,0.0,95,0.00,,---,0.00,VWS V14.01,2013-09-25 10:16:00,
2013-09-25 06:20:00,45.6,44.5,29.90,SSE,161,0.0,0.0,96,0.00,,---,0.00,VWS V14.01,2013-09-25 10:20:00,
2013-09-25 06:21:00,45.6,44.5,29.90,SSE,160,0.0,0.0,96,0.00,,---,0.00,VWS V14.01,2013-09-25 10:21:00,
2013-09-25 06:26:00,45.4,44.0,29.91,SSE,160,0.0,0.0,95,0.00,,---,0.00,VWS V14.01,2013-09-25 10:26:00,
2013-09-25 06:30:00,45.4,44.1,29.90,SSE,160,0.0,0.0,95,0.00,,---,0.00,VWS V14.01,2013-09-25 10:30:00,
2013-09-25 06:31:00,45.4,44.3,29.90,SSE,160,0.0,0.0,96,0.00,,---,0.00,VWS V14.01,2013-09-25 10:31:00,
2013-09-25 06:36:00,45.4,44.3,29.90,SSE,160,0.0,0.0,96,0.00,,---,0.00,VWS V14.01,2013-09-25 10:36:00,
2013-09-25 06:40:00,45.4,44.3,29.90,SSE,160,0.0,0.0,96,0.00,,---,0.00,VWS V14.01,2013-09-25 10:40:00,
2013-09-25 06:41:00,45.3,44.2,29.90,SSE,161,0.0,0.0,96,0.00,,---,0.00,VWS V14.01,2013-09-25 10:41:00,
2013-09-25 06:46:00,45.4,44.3,29.90,SSE,160,0.0,0.0,96,0.00,,---,0.00,VWS V14.01,2013-09-25 10:46:00,
2013-09-25 06:50:00,45.4,44.3,29.90,SSE,160,0.0,0.0,96,0.00,,---,0.00,VWS V14.01,2013-09-25 10:50:00,
2013-09-25 06:51:00,45.6,44.5,29.90,SSE,161,0.0,0.0,96,0.00,,---,0.00,VWS V14.01,2013-09-25 10:51:00,
2013-09-25 06:56:00,45.5,44.4,29.90,ENE,66,0.0,0.0,96,0.00,,---,0.00,VWS V14.01,2013-09-25 10:56:00,
2013-09-25 07:00:00,45.5,44.4,29.91,ENE,65,0.0,0.0,96,0.00,,---,0.00,VWS V14.01,2013-09-25 11:00:00,
2013-09-25 07:01:00,45.4,44.3,29.90,ENE,65,0.0,0.0,96,0.00,,---,0.00,VWS V14.01,2013-09-25 11:01:00,
2013-09-25 07:06:00,45.8,44.7,29.91,NNE,30,0.0,0.0,96,0.00,,---,0.00,VWS V14.01,2013-09-25 11:06:00,
2013-09-25 07:10:00,45.8,44.7,29.91,NNE,30,0.0,0.0,96,0.00,,---,0.00,VWS V14.01,2013-09-25 11:10:00,
2013-09-25 07:11:00,45.7,44.6,29.91,SSE,160,0.0,0.0,96,0.00,,---,0.00,VWS V14.01,2013-09-25 11:11:00,
2013-09-25 07:16:00,45.8,44.7,29.91,SSE,155,0.0,0.0,96,0.00,,---,0.00,VWS V14.01,2013-09-25 11:16:00,
2013-09-25 07:20:00,45.8,44.7,29.91,SSE,155,0.0,0.0,96,0.00,,---,0.00,VWS V14.01,2013-09-25 11:20:00,
2013-09-25 07:21:00,45.8,44.7,29.90,SSE,155,0.0,0.0,96,0.00,,---,0.00,VWS V14.01,2013-09-25 11:21:00,
2013-09-25 07:26:00,46.2,45.1,29.90,SE,136,0.0,1.0,96,0.00,,---,0.00,VWS V14.01,2013-09-25 11:26:00,
2013-09-25 07:30:00,46.2,45.1,29.90,WSW,237,0.0,1.0,96,0.00,,---,0.00,VWS V14.01,2013-09-25 11:30:00,
2013-09-25 07:31:00,46.1,44.8,29.91,WSW,244,0.0,0.0,95,0.00,,---,0.00,VWS V14.01,2013-09-25 11:31:00,
2013-09-25 07:36:00,46.0,44.7,29.91,WSW,244,0.0,0.0,95,0.00,,---,0.00,VWS V14.01,2013-09-25 11:36:00,
2013-09-25 07:40:00,46.0,44.7,29.91,WSW,243,0.0,0.0,95,0.00,,---,0.00,VWS V14.01,2013-09-25 11:40:00,
2013-09-25 07:41:00,46.0,44.7,29.91,WSW,238,0.0,0.0,95,0.00,,---,0.00,VWS V14.01,2013-09-25 11:41:00,
2013-09-25 07:46:00,46.1,44.8,29.91,WSW,238,0.0,0.0,95,0.00,,---,0.00,VWS V14.01,2013-09-25 11:46:00,
2013-09-25 07:50:00,46.2,44.8,29.91,WSW,238,0.0,0.0,95,0.00,,---,0.00,VWS V14.01,2013-09-25 11:50:00,
2013-09-25 07:52:00,46.4,45.3,29.91,WSW,238,0.0,0.0,96,0.00,,---,0.00,VWS V14.01,2013-09-25 11:52:00,
2013-09-25 07:57:00,47.0,45.9,29.91,ENE,64,0.0,0.0,96,0.00,,---,0.00,VWS V14.01,2013-09-25 11:57:00,
2013-09-25 08:00:00,47.2,46.1,29.91,ESE,108,0.0,0.0,96,0.00,,---,0.00,VWS V14.01,2013-09-25 12:00:00,
2013-09-25 08:02:00,47.5,46.4,29.91,ESE,108,0.0,0.0,96,0.00,,---,0.00,VWS V14.01,2013-09-25 12:02:00,
2013-09-25 08:07:00,48.0,46.6,29.91,WNW,296,0.0,0.0,95,0.00,,---,0.00,VWS V14.01,2013-09-25 12:07:00,
2013-09-25 08:10:00,48.2,46.8,29.91,West,280,0.0,0.0,95,0.00,,---,0.00,VWS V14.01,2013-09-25 12:10:00,
2013-09-25 08:12:00,48.4,47.0,29.91,East,89,0.0,0.0,95,0.00,,---,0.00,VWS V14.01,2013-09-25 12:12:00,
2013-09-25 08:17:00,48.8,47.2,29.91,NNW,345,0.0,0.0,94,0.00,,---,0.00,VWS V14.01,2013-09-25 12:17:00,
2013-09-25 08:20:00,48.9,47.2,29.91,NNW,346,0.0,0.0,94,0.00,,---,0.00,VWS V14.01,2013-09-25 12:20:00,
2013-09-25 08:22:00,49.3,47.7,29.91,West,265,0.0,0.0,94,0.00,,---,0.00,VWS V14.01,2013-09-25 12:22:00,
2013-09-25 08:27:00,50.3,48.6,29.91,West,269,0.0,0.0,94,0.00,,---,0.00,VWS V14.01,2013-09-25 12:27:00,
2013-09-25 08:30:00,50.6,48.9,29.91,West,269,0.0,0.0,94,0.00,,---,0.00,VWS V14.01,2013-09-25 12:30:00,
2013-09-25 08:32:00,51.5,49.8,29.91,WSW,256,0.0,0.0,94,0.00,,---,0.00,VWS V14.01,2013-09-25 12:32:00,
2013-09-25 08:37:00,53.0,51.0,29.91,WSW,256,0.0,0.0,93,0.00,,---,0.00,VWS V14.01,2013-09-25 12:37:00,
2013-09-25 08:40:00,53.4,51.1,29.91,SSE,160,0.0,0.0,92,0.00,,---,0.00,VWS V14.01,2013-09-25 12:40:00,
2013-09-25 08:42:00,54.5,51.3,29.91,SSE,164,0.0,0.0,89,0.00,,---,0.00,VWS V14.01,2013-09-25 12:42:00,
2013-09-25 08:47:00,54.9,51.1,29.92,South,169,0.0,0.0,87,0.00,,---,0.00,VWS V14.01,2013-09-25 12:47:00,
2013-09-25 08:50:00,54.9,51.1,29.92,South,169,0.0,0.0,87,0.00,,---,0.00,VWS V14.01,2013-09-25 12:50:00,
2013-09-25 08:52:00,55.2,51.4,29.92,South,171,0.0,0.0,87,0.01,,---,0.01,VWS V14.01,2013-09-25 12:52:00,
2013-09-25 08:57:00,55.6,52.1,29.92,South,172,0.0,0.0,88,0.01,,---,0.01,VWS V14.01,2013-09-25 12:57:00,
2013-09-25 09:00:00,55.8,52.3,29.92,South,172,0.0,0.0,88,0.01,,---,0.01,VWS V14.01,2013-09-25 13:00:00,
2013-09-25 09:02:00,56.2,52.4,29.92,NW,313,0.0,0.0,87,0.01,,---,0.01,VWS V14.01,2013-09-25 13:02:00,
2013-09-25 09:07:00,56.5,52.7,29.92,WSW,243,0.0,0.0,87,0.01,,---,0.01,VWS V14.01,2013-09-25 13:07:00,
2013-09-25 09:10:00,56.5,52.4,29.92,WSW,244,0.0,0.0,86,0.01,,---,0.01,VWS V14.01,2013-09-25 13:10:00,
2013-09-25 09:12:00,56.7,51.6,29.93,NE,42,0.0,2.0,83,0.01,,---,0.01,VWS V14.01,2013-09-25 13:12:00,
2013-09-25 09:17:00,57.3,52.2,29.93,SE,146,0.0,2.0,83,0.01,,---,0.01,VWS V14.01,2013-09-25 13:17:00,
2013-09-25 09:20:00,57.3,52.2,29.93,NNW,334,0.0,2.0,83,0.01,,---,0.01,VWS V14.01,2013-09-25 13:20:00,
2013-09-25 09:22:00,57.3,51.2,29.93,NNW,345,0.0,1.0,80,0.01,,---,0.01,VWS V14.01,2013-09-25 13:22:00,
2013-09-25 09:27:00,58.3,52.2,29.92,WSW,243,0.0,1.0,80,0.01,,---,0.01,VWS V14.01,2013-09-25 13:27:00,
2013-09-25 09:30:00,58.5,51.7,29.92,WSW,244,0.0,1.0,78,0.01,,---,0.01,VWS V14.01,2013-09-25 13:30:00,
2013-09-25 09:32:00,59.3,53.1,29.92,WSW,244,0.0,0.0,80,0.01,,---,0.01,VWS V14.01,2013-09-25 13:32:00,
2013-09-25 09:38:00,60.5,53.6,29.92,WSW,245,0.0,0.0,78,0.01,,---,0.01,VWS V14.01,2013-09-25 13:38:00,
2013-09-25 09:40:00,60.5,53.6,29.92,WSW,246,0.0,0.0,78,0.01,,---,0.01,VWS V14.01,2013-09-25 13:40:00,
2013-09-25 09:43:00,61.1,53.1,29.92,WSW,243,0.0,0.0,75,0.01,,---,0.01,VWS V14.01,2013-09-25 13:43:00,
2013-09-25 09:48:00,61.7,54.8,29.92,WSW,244,0.0,0.0,78,0.01,,---,0.01,VWS V14.01,2013-09-25 13:48:00,
2013-09-25 09:50:00,61.9,55.0,29.92,WSW,244,0.0,0.0,78,0.01,,---,0.01,VWS V14.01,2013-09-25 13:50:00,
2013-09-25 09:53:00,63.0,52.7,29.92,WSW,238,0.0,0.0,69,0.01,,---,0.01,VWS V14.01,2013-09-25 13:53:00,
2013-09-25 09:58:00,64.3,50.1,29.92,West,276,0.0,1.0,60,0.01,,---,0.01,VWS V14.01,2013-09-25 13:58:00,
2013-09-25 10:00:00,64.4,50.2,29.92,SSW,213,0.0,1.0,60,0.01,,---,0.01,VWS V14.01,2013-09-25 14:00:00,
2013-09-25 10:03:00,65.1,52.2,29.92,SSE,168,1.0,1.0,63,0.00,,---,0.01,VWS V14.01,2013-09-25 14:03:00,
2013-09-25 10:08:00,65.6,48.5,29.91,SE,127,0.0,4.0,54,0.00,,---,0.01,VWS V14.01,2013-09-25 14:08:00,
2013-09-25 10:10:00,65.6,48.5,29.91,NNE,13,0.0,4.0,54,0.00,,---,0.01,VWS V14.01,2013-09-25 14:10:00,
2013-09-25 10:13:00,65.5,46.9,29.91,SE,143,0.0,8.0,51,0.00,,---,0.01,VWS V14.01,2013-09-25 14:13:00,
2013-09-25 10:18:00,65.3,46.2,29.91,SE,132,5.0,8.0,50,0.00,,---,0.01,VWS V14.01,2013-09-25 14:18:00,
2013-09-25 10:20:00,65.3,46.2,29.91,ESE,121,4.0,8.0,50,0.00,,---,0.01,VWS V14.01,2013-09-25 14:20:00,
2013-09-25 10:23:00,65.4,47.8,29.91,SE,146,1.0,5.0,53,0.00,,---,0.01,VWS V14.01,2013-09-25 14:23:00,
2013-09-25 10:28:00,65.7,47.1,29.92,SE,134,0.0,5.0,51,0.00,,---,0.01,VWS V14.01,2013-09-25 14:28:00,
2013-09-25 10:30:00,65.7,47.1,29.92,SE,136,1.0,5.0,51,0.00,,---,0.01,VWS V14.01,2013-09-25 14:30:00,
2013-09-25 10:33:00,66.0,46.8,29.92,SE,126,0.0,4.0,50,0.00,,---,0.01,VWS V14.01,2013-09-25 14:33:00,
2013-09-25 10:38:00,66.9,47.7,29.92,East,86,1.0,4.0,50,0.00,,---,0.01,VWS V14.01,2013-09-25 14:38:00,
2013-09-25 10:40:00,66.9,47.7,29.92,ESE,121,1.0,4.0,50,0.00,,---,0.01,VWS V14.01,2013-09-25 14:40:00,
2013-09-25 10:43:00,67.4,47.6,29.91,ESE,123,1.0,1.0,49,0.00,,---,0.01,VWS V14.01,2013-09-25 14:43:00,
2013-09-25 10:48:00,68.0,47.6,29.91,SE,146,5.0,6.0,48,0.00,,---,0.01,VWS V14.01,2013-09-25 14:48:00,
2013-09-25 10:50:00,68.0,46.5,29.91,SE,138,4.0,6.0,46,0.00,,---,0.01,VWS V14.01,2013-09-25 14:50:00,
2013-09-25 10:53:00,68.2,48.3,29.91,South,185,2.0,5.0,49,0.00,,---,0.01,VWS V14.01,2013-09-25 14:53:00,
2013-09-25 10:58:00,68.5,48.6,29.92,SSE,153,0.0,5.0,49,0.00,,---,0.01,VWS V14.01,2013-09-25 14:58:00,
2013-09-25 11:00:00,68.5,48.6,29.92,SSE,154,4.0,5.0,49,0.00,,---,0.01,VWS V14.01,2013-09-25 15:00:00,
2013-09-25 11:03:00,68.9,49.0,29.92,SSW,199,1.0,4.0,49,0.00,,---,0.01,VWS V14.01,2013-09-25 15:03:00,
2013-09-25 11:08:00,69.5,50.6,29.92,ESE,121,0.0,4.0,51,0.00,,---,0.01,VWS V14.01,2013-09-25 15:08:00,
2013-09-25 11:10:00,69.5,50.6,29.92,SE,127,0.0,4.0,51,0.00,,---,0.01,VWS V14.01,2013-09-25 15:10:00,
2013-09-25 11:13:00,69.8,49.2,29.92,SE,138,0.0,5.0,48,0.00,,---,0.01,VWS V14.01,2013-09-25 15:13:00,
2013-09-25 11:18:00,69.5,49.0,29.91,ESE,108,1.0,5.0,48,0.00,,---,0.01,VWS V14.01,2013-09-25 15:18:00,
2013-09-25 11:20:00,69.4,48.9,29.91,ESE,109,0.0,5.0,48,0.00,,---,0.01,VWS V14.01,2013-09-25 15:20:00,
2013-09-25 11:23:00,69.9,49.9,29.91,SSE,153,4.0,4.0,49,0.00,,---,0.01,VWS V14.01,2013-09-25 15:23:00,
2013-09-25 11:28:00,69.7,49.7,29.91,SE,138,0.0,4.0,49,0.00,,---,0.01,VWS V14.01,2013-09-25 15:28:00,
2013-09-25 11:30:00,69.7,49.2,29.91,ESE,112,0.0,4.0,48,0.00,,---,0.01,VWS V14.01,2013-09-25 15:30:00,
2013-09-25 11:33:00,70.5,51.0,29.91,SSW,207,0.0,1.0,50,0.00,,---,0.01,VWS V14.01,2013-09-25 15:33:00,
2013-09-25 11:38:00,71.1,51.5,29.91,SSE,155,0.0,5.0,50,0.00,,---,0.01,VWS V14.01,2013-09-25 15:38:00,
2013-09-25 11:40:00,71.1,51.5,29.91,SE,144,1.0,5.0,50,0.00,,---,0.01,VWS V14.01,2013-09-25 15:40:00,
2013-09-25 11:43:00,71.3,52.8,29.91,SSW,199,0.0,6.0,52,0.00,,---,0.01,VWS V14.01,2013-09-25 15:43:00,
2013-09-25 11:48:00,71.1,51.0,29.90,NNE,15,0.0,6.0,49,0.00,,---,0.01,VWS V14.01,2013-09-25 15:48:00,
2013-09-25 11:50:00,71.1,51.0,29.90,NNE,15,0.0,6.0,49,0.00,,---,0.01,VWS V14.01,2013-09-25 15:50:00,
2013-09-25 11:53:00,71.3,51.2,29.91,SE,134,5.0,5.0,49,0.00,,---,0.01,VWS V14.01,2013-09-25 15:53:00,
2013-09-25 11:58:00,70.7,51.2,29.91,ESE,107,1.0,7.0,50,0.00,,---,0.01,VWS V14.01,2013-09-25 15:58:00,
2013-09-25 12:00:00,70.7,51.2,29.91,ESE,107,0.0,7.0,50,0.00,,---,0.01,VWS V14.01,2013-09-25 16:00:00,
2013-09-25 12:03:00,70.4,51.4,29.91,South,169,1.0,4.0,51,0.00,,---,0.01,VWS V14.01,2013-09-25 16:03:00,
2013-09-25 12:08:00,70.5,52.6,29.91,SSE,157,2.0,4.0,53,0.00,,---,0.01,VWS V14.01,2013-09-25 16:08:00,
2013-09-25 12:10:00,70.5,52.6,29.91,SSW,200,2.0,4.0,53,0.00,,---,0.01,VWS V14.01,2013-09-25 16:10:00,
2013-09-25 12:13:00,70.5,52.0,29.91,SE,128,4.0,7.0,52,0.00,,---,0.01,VWS V14.01,2013-09-25 16:13:00,
2013-09-25 12:18:00,70.4,52.5,29.90,SE,130,0.0,7.0,53,0.00,,---,0.01,VWS V14.01,2013-09-25 16:18:00,
2013-09-25 12:20:00,70.4,52.5,29.90,SE,130,0.0,7.0,53,0.00,,---,0.01,VWS V14.01,2013-09-25 16:20:00,
2013-09-25 12:23:00,70.5,53.1,29.90,ESE,121,0.0,4.0,54,0.00,,---,0.01,VWS V14.01,2013-09-25 16:23:00,
2013-09-25 12:28:00,70.6,52.7,29.90,SE,145,0.0,4.0,53,0.00,,---,0.01,VWS V14.01,2013-09-25 16:28:00,
2013-09-25 12:30:00,70.6,52.7,29.90,SE,145,0.0,4.0,53,0.00,,---,0.01,VWS V14.01,2013-09-25 16:30:00,
2013-09-25 12:33:00,70.9,52.9,29.90,SSW,194,0.0,1.0,53,0.00,,---,0.01,VWS V14.01,2013-09-25 16:33:00,
2013-09-25 12:38:00,71.1,53.6,29.90,SSW,199,3.0,3.0,54,0.00,,---,0.01,VWS V14.01,2013-09-25 16:38:00,
2013-09-25 12:40:00,71.1,53.6,29.90,SSW,210,3.0,3.0,54,0.00,,---,0.01,VWS V14.01,2013-09-25 16:40:00,
2013-09-25 12:43:00,71.1,53.6,29.90,SW,221,0.0,3.0,54,0.00,,---,0.01,VWS V14.01,2013-09-25 16:43:00,
2013-09-25 12:48:00,71.5,53.0,29.90,SE,127,0.0,0.0,52,0.00,,---,0.01,VWS V14.01,2013-09-25 16:48:00,
2013-09-25 12:50:00,71.5,54.0,29.90,ESE,112,0.0,3.0,54,0.00,,---,0.01,VWS V14.01,2013-09-25 16:50:00,
2013-09-25 12:53:00,71.7,54.2,29.90,SE,137,1.0,2.0,54,0.00,,---,0.01,VWS V14.01,2013-09-25 16:53:00,
2013-09-25 12:58:00,71.8,54.8,29.90,SE,138,0.0,0.0,55,0.00,,---,0.01,VWS V14.01,2013-09-25 16:58:00,
2013-09-25 13:00:00,71.7,54.7,29.90,SE,133,0.0,4.0,55,0.00,,---,0.01,VWS V14.01,2013-09-25 17:00:00,
2013-09-25 13:03:00,72.4,54.8,29.90,SSE,154,2.0,2.0,54,0.00,,---,0.01,VWS V14.01,2013-09-25 17:03:00,
2013-09-25 13:08:00,72.3,53.7,29.90,SE,130,2.0,2.0,52,0.00,,---,0.01,VWS V14.01,2013-09-25 17:08:00,
2013-09-25 13:10:00,72.3,53.7,29.90,SSE,157,2.0,6.0,52,0.00,,---,0.01,VWS V14.01,2013-09-25 17:10:00,
2013-09-25 13:13:00,72.6,54.0,29.90,SSW,202,2.0,5.0,52,0.00,,---,0.01,VWS V14.01,2013-09-25 17:13:00,
2013-09-25 13:18:00,73.4,54.2,29.90,SSE,148,0.0,1.0,51,0.00,,---,0.01,VWS V14.01,2013-09-25 17:18:00,
2013-09-25 13:20:00,73.4,53.7,29.90,SE,128,1.0,5.0,50,0.00,,---,0.01,VWS V14.01,2013-09-25 17:20:00,
2013-09-25 13:23:00,73.4,53.1,29.90,SE,137,0.0,4.0,49,0.00,,---,0.01,VWS V14.01,2013-09-25 17:23:00,
2013-09-25 13:28:00,74.2,55.5,29.89,WSW,237,0.0,1.0,52,0.00,,---,0.01,VWS V14.01,2013-09-25 17:28:00,
2013-09-25 13:30:00,74.1,55.4,29.89,WSW,249,1.0,4.0,52,0.00,,---,0.01,VWS V14.01,2013-09-25 17:30:00,
2013-09-25 13:33:00,74.6,53.6,29.89,SE,135,1.0,2.0,48,0.00,,---,0.01,VWS V14.01,2013-09-25 17:33:00,
2013-09-25 13:38:00,74.8,54.9,29.89,East,82,0.0,0.0,50,0.00,,---,0.01,VWS V14.01,2013-09-25 17:38:00,
2013-09-25 13:40:00,74.8,54.9,29.89,East,93,0.0,4.0,50,0.00,,---,0.01,VWS V14.01,2013-09-25 17:40:00,
2013-09-25 13:43:00,74.7,54.8,29.88,NE,35,5.0,5.0,50,0.00,,---,0.01,VWS V14.01,2013-09-25 17:43:00,
2013-09-25 13:48:00,74.6,54.2,29.88,West,277,1.0,2.0,49,0.00,,---,0.01,VWS V14.01,2013-09-25 17:48:00,
2013-09-25 13:50:00,74.6,54.2,29.88,WNW,301,2.0,5.0,49,0.00,,---,0.01,VWS V14.01,2013-09-25 17:50:00,
2013-09-25 13:53:00,74.3,54.5,29.88,NNE,17,1.0,7.0,50,0.00,,---,0.01,VWS V14.01,2013-09-25 17:53:00,
2013-09-25 13:58:00,74.4,54.0,29.88,NNE,17,1.0,2.0,49,0.00,,---,0.01,VWS V14.01,2013-09-25 17:58:00,
2013-09-25 14:00:00,74.4,56.2,29.88,NNE,22,3.0,7.0,53,0.00,,---,0.01,VWS V14.01,2013-09-25 18:00:00,
2013-09-25 14:03:00,74.3,55.6,29.88,NNE,32,2.0,5.0,52,0.00,,---,0.01,VWS V14.01,2013-09-25 18:03:00,
2013-09-25 14:08:00,74.4,54.0,29.88,NNE,13,0.0,0.0,49,0.00,,---,0.01,VWS V14.01,2013-09-25 18:08:00,
2013-09-25 14:10:00,74.4,54.0,29.88,NNE,27,0.0,5.0,49,0.00,,---,0.01,VWS V14.01,2013-09-25 18:10:00,
2013-09-25 14:13:00,74.6,55.3,29.88,NNE,24,0.0,4.0,51,0.00,,---,0.01,VWS V14.01,2013-09-25 18:13:00,
2013-09-25 14:19:00,74.5,54.1,29.88,ENE,58,2.0,6.0,49,0.00,,---,0.01,VWS V14.01,2013-09-25 18:19:00,
2013-09-25 14:20:00,74.5,54.1,29.88,NE,54,2.0,6.0,49,0.00,,---,0.01,VWS V14.01,2013-09-25 18:20:00,
2013-09-25 14:24:00,74.9,54.5,29.87,North,349,0.0,6.0,49,0.00,,---,0.01,VWS V14.01,2013-09-25 18:24:00,
2013-09-25 14:29:00,74.8,54.4,29.87,SSE,157,4.0,4.0,49,0.00,,---,0.01,VWS V14.01,2013-09-25 18:29:00,
2013-09-25 14:30:00,74.8,53.8,29.87,SE,134,4.0,6.0,48,0.00,,---,0.01,VWS V14.01,2013-09-25 18:30:00,
2013-09-25 14:34:00,75.1,53.5,29.87,SSE,153,2.0,5.0,47,0.00,,---,0.01,VWS V14.01,2013-09-25 18:34:00,
2013-09-25 14:39:00,74.7,54.8,29.87,SSW,209,0.0,1.0,50,0.00,,---,0.01,VWS V14.01,2013-09-25 18:39:00,
2013-09-25 14:40:00,74.7,53.7,29.87,SE,141,1.0,7.0,48,0.00,,---,0.01,VWS V14.01,2013-09-25 18:40:00,
2013-09-25 14:44:00,74.9,54.5,29.87,SSE,159,0.0,2.0,49,0.00,,---,0.01,VWS V14.01,2013-09-25 18:44:00,
2013-09-25 14:49:00,75.7,55.8,29.87,SE,126,0.0,0.0,50,0.00,,---,0.01,VWS V14.01,2013-09-25 18:49:00,
2013-09-25 14:50:00,75.7,55.8,29.87,SE,134,0.0,4.0,50,0.00,,---,0.01,VWS V14.01,2013-09-25 18:50:00,
2013-09-25 14:54:00,75.4,54.4,29.87,ESE,113,0.0,2.0,48,0.00,,---,0.01,VWS V14.01,2013-09-25 18:54:00,
2013-09-25 14:59:00,75.5,55.0,29.87,SE,130,1.0,2.0,49,0.00,,---,0.01,VWS V14.01,2013-09-25 18:59:00,
2013-09-25 15:00:00,75.4,54.4,29.87,SSE,160,0.0,2.0,48,0.00,,---,0.01,VWS V14.01,2013-09-25 19:00:00,
2013-09-25 15:04:00,75.2,55.3,29.86,South,172,5.0,6.0,50,0.00,,---,0.01,VWS V14.01,2013-09-25 19:04:00,
2013-09-25 15:09:00,75.0,55.1,29.86,SSW,207,0.0,1.0,50,0.00,,---,0.01,VWS V14.01,2013-09-25 19:09:00,
2013-09-25 15:10:00,75.0,54.6,29.86,SSE,155,1.0,6.0,49,0.00,,---,0.01,VWS V14.01,2013-09-25 19:10:00,
2013-09-25 15:14:00,75.1,55.2,29.86,SW,222,2.0,8.0,50,0.00,,---,0.01,VWS V14.01,2013-09-25 19:14:00,
2013-09-25 15:19:00,75.4,54.9,29.86,NE,36,5.0,5.0,49,0.00,,---,0.01,VWS V14.01,2013-09-25 19:19:00,
2013-09-25 15:20:00,75.4,54.9,29.86,ENE,59,4.0,8.0,49,0.00,,---,0.01,VWS V14.01,2013-09-25 19:20:00,
2013-09-25 15:24:00,74.9,54.5,29.86,NNE,17,0.0,6.0,49,0.00,,---,0.01,VWS V14.01,2013-09-25 19:24:00,
2013-09-25 15:29:00,75.3,55.4,29.86,ESE,123,2.0,7.0,50,0.00,,---,0.01,VWS V14.01,2013-09-25 19:29:00,
2013-09-25 15:30:00,75.2,55.3,29.86,SSE,153,5.0,6.0,50,0.00,,---,0.01,VWS V14.01,2013-09-25 19:30:00,
2013-09-25 15:34:00,75.6,55.7,29.86,SE,135,4.0,7.0,50,0.00,,---,0.01,VWS V14.01,2013-09-25 19:34:00,
2013-09-25 15:39:00,75.8,55.9,29.86,ESE,120,0.0,0.0,50,0.00,,---,0.01,VWS V14.01,2013-09-25 19:39:00,
2013-09-25 15:40:00,75.7,55.2,29.85,ENE,69,0.0,7.0,49,0.00,,---,0.01,VWS V14.01,2013-09-25 19:40:00,
2013-09-25 15:44:00,76.1,55.6,29.85,South,175,0.0,2.0,49,0.00,,---,0.01,VWS V14.01,2013-09-25 19:44:00,
2013-09-25 15:49:00,76.4,55.3,29.85,NE,35,1.0,2.0,48,0.00,,---,0.01,VWS V14.01,2013-09-25 19:49:00,
2013-09-25 15:50:00,76.4,55.3,29.85,SW,234,1.0,2.0,48,0.00,,---,0.01,VWS V14.01,2013-09-25 19:50:00,
2013-09-25 15:54:00,76.4,54.7,29.85,NNE,30,2.0,4.0,47,0.00,,---,0.01,VWS V14.01,2013-09-25 19:54:00,
2013-09-25 15:59:00,75.6,54.0,29.85,NNE,19,3.0,4.0,47,0.00,,---,0.01,VWS V14.01,2013-09-25 19:59:00,
2013-09-25 16:00:00,75.6,54.0,29.85,NNE,32,2.0,4.0,47,0.00,,---,0.01,VWS V14.01,2013-09-25 20:00:00,
2013-09-25 16:04:00,75.7,54.6,29.85,ESE,119,1.0,4.0,48,0.00,,---,0.01,VWS V14.01,2013-09-25 20:04:00,
2013-09-25 16:09:00,76.0,56.0,29.85,NNE,28,0.0,0.0,50,0.00,,---,0.01,VWS V14.01,2013-09-25 20:09:00,
2013-09-25 16:10:00,75.9,56.0,29.85,ESE,114,0.0,4.0,50,0.00,,---,0.01,VWS V14.01,2013-09-25 20:10:00,
2013-09-25 16:14:00,76.1,55.0,29.85,NNW,336,2.0,4.0,48,0.00,,---,0.01,VWS V14.01,2013-09-25 20:14:00,
2013-09-25 16:19:00,76.1,55.0,29.85,East,94,4.0,5.0,48,0.00,,---,0.01,VWS V14.01,2013-09-25 20:19:00,
2013-09-25 16:20:00,76.1,55.6,29.85,South,182,0.0,4.0,49,0.00,,---,0.01,VWS V14.01,2013-09-25 20:20:00,
2013-09-25 16:24:00,75.8,54.2,29.85,NW,313,0.0,8.0,47,0.00,,---,0.01,VWS V14.01,2013-09-25 20:24:00,
2013-09-25 16:29:00,75.6,54.5,29.85,SE,132,0.0,1.0,48,0.00,,---,0.01,VWS V14.01,2013-09-25 20:29:00,
2013-09-25 16:30:00,75.6,54.5,29.85,NE,38,0.0,8.0,48,0.00,,---,0.01,VWS V14.01,2013-09-25 20:30:00,
2013-09-25 16:34:00,76.2,54.5,29.85,NNE,17,0.0,1.0,47,0.00,,---,0.01,VWS V14.01,2013-09-25 20:34:00,
2013-09-25 16:39:00,76.6,53.7,29.85,ESE,123,1.0,2.0,45,0.00,,---,0.01,VWS V14.01,2013-09-25 20:39:00,
2013-09-25 16:40:00,76.7,53.8,29.85,ESE,116,1.0,1.0,45,0.00,,---,0.01,VWS V14.01,2013-09-25 20:40:00,
2013-09-25 16:44:00,76.6,54.9,29.84,ENE,71,0.0,2.0,47,0.00,,---,0.01,VWS V14.01,2013-09-25 20:44:00,
2013-09-25 16:49:00,76.4,52.9,29.84,NNE,32,0.0,5.0,44,0.00,,---,0.01,VWS V14.01,2013-09-25 20:49:00,
2013-09-25 16:50:00,76.5,53.0,29.85,NNE,32,4.0,4.0,44,0.00,,---,0.01,VWS V14.01,2013-09-25 20:50:00,
2013-09-25 16:54:00,75.9,53.1,29.84,NE,34,2.0,5.0,45,0.00,,---,0.01,VWS V14.01,2013-09-25 20:54:00,
2013-09-25 16:59:00,75.6,52.2,29.84,North,5,2.0,2.0,44,0.00,,---,0.01,VWS V14.01,2013-09-25 20:59:00,
2013-09-25 17:00:00,75.7,52.3,29.84,NNE,31,0.0,5.0,44,0.00,,---,0.01,VWS V14.01,2013-09-25 21:00:00,
2013-09-25 17:04:00,75.5,53.3,29.84,NNW,340,2.0,3.0,46,0.00,,---,0.01,VWS V14.01,2013-09-25 21:04:00,
2013-09-25 17:09:00,75.1,52.9,29.84,NE,47,0.0,4.0,46,0.00,,---,0.01,VWS V14.01,2013-09-25 21:09:00,
2013-09-25 17:10:00,75.1,52.3,29.84,NE,53,0.0,6.0,45,0.00,,---,0.01,VWS V14.01,2013-09-25 21:10:00,
2013-09-25 17:14:00,74.5,51.8,29.84,NE,34,1.0,5.0,45,0.00,,---,0.01,VWS V14.01,2013-09-25 21:14:00,
2013-09-25 17:19:00,73.8,51.8,29.84,NNW,346,1.0,4.0,46,0.00,,---,0.01,VWS V14.01,2013-09-25 21:19:00,
2013-09-25 17:20:00,74.0,51.9,29.84,NW,322,4.0,5.0,46,0.00,,---,0.01,VWS V14.01,2013-09-25 21:20:00,
2013-09-25 17:24:00,73.1,51.7,29.84,WNW,286,0.0,4.0,47,0.00,,---,0.01,VWS V14.01,2013-09-25 21:24:00,
2013-09-25 17:29:00,72.7,51.9,29.84,NE,53,0.0,1.0,48,0.00,,---,0.01,VWS V14.01,2013-09-25 21:29:00,
2013-09-25 17:30:00,72.8,52.5,29.84,NE,34,0.0,4.0,49,0.00,,---,0.01,VWS V14.01,2013-09-25 21:30:00,
2013-09-25 17:34:00,72.5,51.2,29.84,NNW,348,0.0,5.0,47,0.00,,---,0.01,VWS V14.01,2013-09-25 21:34:00,
2013-09-25 17:39:00,72.3,51.0,29.84,NNE,32,1.0,2.0,47,0.00,,---,0.01,VWS V14.01,2013-09-25 21:39:00,
2013-09-25 17:40:00,72.4,51.1,29.84,NNE,27,2.0,5.0,47,0.00,,---,0.01,VWS V14.01,2013-09-25 21:40:00,
2013-09-25 17:44:00,72.1,51.9,29.84,NNE,32,0.0,3.0,49,0.00,,---,0.01,VWS V14.01,2013-09-25 21:44:00,
2013-09-25 17:49:00,71.8,52.2,29.84,NE,34,0.0,0.0,50,0.00,,---,0.01,VWS V14.01,2013-09-25 21:49:00,
2013-09-25 17:50:00,71.9,52.3,29.84,NNE,28,0.0,4.0,50,0.00,,---,0.01,VWS V14.01,2013-09-25 21:50:00,
2013-09-25 17:54:00,71.4,53.4,29.85,NE,35,0.0,6.0,53,0.00,,---,0.01,VWS V14.01,2013-09-25 21:54:00,
2013-09-25 17:59:00,71.0,54.0,29.85,NE,39,0.0,0.0,55,0.00,,---,0.01,VWS V14.01,2013-09-25 21:59:00,
2013-09-25 18:00:00,71.2,53.7,29.85,NW,305,0.0,6.0,54,0.00,,---,0.01,VWS V14.01,2013-09-25 22:00:00,
2013-09-25 18:04:00,70.7,52.8,29.85,ESE,108,0.0,2.0,53,0.00,,---,0.01,VWS V14.01,2013-09-25 22:04:00,
2013-09-25 18:09:00,70.3,51.9,29.85,SE,139,0.0,0.0,52,0.00,,---,0.01,VWS V14.01,2013-09-25 22:09:00,
2013-09-25 18:10:00,70.4,52.5,29.85,SSE,161,0.0,2.0,53,0.00,,---,0.01,VWS V14.01,2013-09-25 22:10:00,
2013-09-25 18:14:00,69.9,51.5,29.85,SE,130,0.0,1.0,52,0.00,,---,0.01,VWS V14.01,2013-09-25 22:14:00,
2013-09-25 18:19:00,69.6,50.7,29.85,East,98,1.0,1.0,51,0.00,,---,0.01,VWS V14.01,2013-09-25 22:19:00,
2013-09-25 18:20:00,69.6,50.7,29.85,SE,139,0.0,1.0,51,0.00,,---,0.01,VWS V14.01,2013-09-25 22:20:00,
2013-09-25 18:24:00,69.1,50.8,29.85,SSE,148,0.0,1.0,52,0.00,,---,0.01,VWS V14.01,2013-09-25 22:24:00,
2013-09-25 18:29:00,68.7,51.9,29.86,SSE,163,0.0,1.0,55,0.00,,---,0.01,VWS V14.01,2013-09-25 22:29:00,
2013-09-25 18:30:00,68.8,51.0,29.86,SE,125,1.0,2.0,53,0.00,,---,0.01,VWS V14.01,2013-09-25 22:30:00,
2013-09-25 18:35:00,68.1,51.8,29.86,SE,132,0.0,1.0,56,0.00,,---,0.01,VWS V14.01,2013-09-25 22:35:00,
2013-09-25 18:40:00,67.4,52.1,29.86,SE,132,0.0,0.0,58,0.00,,---,0.01,VWS V14.01,2013-09-25 22:40:00,
2013-09-25 18:45:00,66.9,52.1,29.86,SE,132,0.0,0.0,59,0.00,,---,0.01,VWS V14.01,2013-09-25 22:45:00,
2013-09-25 18:50:00,66.3,52.5,29.86,NNE,32,0.0,0.0,61,0.00,,---,0.01,VWS V14.01,2013-09-25 22:50:00,
2013-09-25 18:55:00,65.7,52.8,29.86,NNE,32,0.0,0.0,63,0.00,,---,0.01,VWS V14.01,2013-09-25 22:55:00,
2013-09-25 19:00:00,65.0,52.1,29.86,NNE,32,0.0,0.0,63,0.00,,---,0.01,VWS V14.01,2013-09-25 23:00:00,
2013-09-25 19:05:00,65.0,51.7,29.86,NE,35,0.0,0.0,62,0.00,,---,0.01,VWS V14.01,2013-09-25 23:05:00,
2013-09-25 19:10:00,64.9,52.5,29.86,NE,35,0.0,0.0,64,0.00,,---,0.01,VWS V14.01,2013-09-25 23:10:00,
2013-09-25 19:15:00,64.4,52.8,29.86,NE,35,0.0,0.0,66,0.00,,---,0.01,VWS V14.01,2013-09-25 23:15:00,
2013-09-25 19:20:00,63.8,53.0,29.87,NE,35,0.0,0.0,68,0.00,,---,0.01,VWS V14.01,2013-09-25 23:20:00,
2013-09-25 19:25:00,63.2,53.3,29.86,NE,34,0.0,0.0,70,0.00,,---,0.01,VWS V14.01,2013-09-25 23:25:00,
2013-09-25 19:30:00,62.6,53.1,29.87,NE,34,0.0,0.0,71,0.00,,---,0.01,VWS V14.01,2013-09-25 23:30:00,
2013-09-25 19:35:00,62.5,53.0,29.87,NE,34,0.0,0.0,71,0.00,,---,0.01,VWS V14.01,2013-09-25 23:35:00,
2013-09-25 19:40:00,62.3,53.9,29.87,NE,34,0.0,0.0,74,0.00,,---,0.01,VWS V14.01,2013-09-25 23:40:00,
2013-09-25 19:45:00,62.2,53.5,29.87,NE,34,0.0,0.0,73,0.00,,---,0.01,VWS V14.01,2013-09-25 23:45:00,
2013-09-25 19:50:00,62.2,53.8,29.87,NE,35,0.0,0.0,74,0.00,,---,0.01,VWS V14.01,2013-09-25 23:50:00,
2013-09-25 19:55:00,62.0,53.6,29.87,East,90,0.0,1.0,74,0.00,,---,0.01,VWS V14.01,2013-09-25 23:55:00,
2013-09-25 20:00:00,61.9,53.9,29.87,NE,52,0.0,0.0,75,0.00,,---,0.01,VWS V14.01,2013-09-26 00:00:00,
2013-09-25 20:05:00,61.7,54.1,29.87,NE,51,0.0,0.0,76,0.00,,---,0.01,VWS V14.01,2013-09-26 00:05:00,
2013-09-25 20:10:00,61.3,54.0,29.87,ENE,65,0.0,0.0,77,0.00,,---,0.01,VWS V14.01,2013-09-26 00:10:00,
2013-09-25 20:15:00,61.4,53.0,29.87,NNE,32,0.0,1.0,74,0.00,,---,0.01,VWS V14.01,2013-09-26 00:15:00,
2013-09-25 20:20:00,61.6,53.6,29.87,NE,53,0.0,0.0,75,0.00,,---,0.01,VWS V14.01,2013-09-26 00:20:00,
2013-09-25 20:25:00,61.4,53.4,29.87,North,11,0.0,0.0,75,0.00,,---,0.01,VWS V14.01,2013-09-26 00:25:00,
2013-09-25 20:30:00,61.0,53.8,29.87,North,11,0.0,0.0,77,0.00,,---,0.01,VWS V14.01,2013-09-26 00:30:00,
2013-09-25 20:35:00,60.3,53.8,29.87,North,11,0.0,0.0,79,0.00,,---,0.01,VWS V14.01,2013-09-26 00:35:00,
2013-09-25 20:40:00,60.0,53.1,29.87,North,11,0.0,0.0,78,0.00,,---,0.01,VWS V14.01,2013-09-26 00:40:00,
2013-09-25 20:45:00,59.9,52.7,29.88,North,11,0.0,0.0,77,0.00,,---,0.01,VWS V14.01,2013-09-26 00:45:00,
2013-09-25 20:50:00,59.7,53.2,29.88,North,11,0.0,0.0,79,0.00,,---,0.01,VWS V14.01,2013-09-26 00:50:00,
2013-09-25 20:55:00,59.3,52.5,29.88,North,11,0.0,0.0,78,0.00,,---,0.01,VWS V14.01,2013-09-26 00:55:00,
2013-09-25 21:00:00,59.2,52.0,29.88,North,11,0.0,0.0,77,0.00,,---,0.01,VWS V14.01,2013-09-26 01:00:00,
2013-09-25 21:05:00,59.3,52.8,29.88,WNW,302,0.0,0.0,79,0.00,,---,0.01,VWS V14.01,2013-09-26 01:05:00,
2013-09-25 21:10:00,59.0,52.5,29.88,WNW,301,0.0,0.0,79,0.00,,---,0.01,VWS V14.01,2013-09-26 01:10:00,
2013-09-25 21:15:00,58.7,52.6,29.88,WNW,301,0.0,0.0,80,0.00,,---,0.01,VWS V14.01,2013-09-26 01:15:00,
2013-09-25 21:20:00,58.7,51.9,29.88,WNW,301,0.0,0.0,78,0.00,,---,0.01,VWS V14.01,2013-09-26 01:20:00,
2013-09-25 21:25:00,58.5,52.4,29.88,WNW,302,0.0,0.0,80,0.00,,---,0.01,VWS V14.01,2013-09-26 01:25:00,
2013-09-25 21:30:00,58.0,51.9,29.89,WNW,302,0.0,0.0,80,0.00,,---,0.01,VWS V14.01,2013-09-26 01:30:00,
2013-09-25 21:35:00,57.8,51.3,29.89,WNW,303,0.0,0.0,79,0.00,,---,0.01,VWS V14.01,2013-09-26 01:35:00,
2013-09-25 21:40:00,57.8,51.0,29.89,WNW,303,0.0,0.0,78,0.00,,---,0.01,VWS V14.01,2013-09-26 01:40:00,
2013-09-25 21:45:00,57.6,51.1,29.89,WNW,303,0.0,0.0,79,0.00,,---,0.01,VWS V14.01,2013-09-26 01:45:00,
2013-09-25 21:50:00,57.4,51.3,29.89,WNW,303,0.0,0.0,80,0.00,,---,0.01,VWS V14.01,2013-09-26 01:50:00,
2013-09-25 21:55:00,57.0,51.2,29.89,WNW,302,0.0,0.0,81,0.00,,---,0.01,VWS V14.01,2013-09-26 01:55:00,
2013-09-25 22:00:00,56.6,51.2,29.89,WNW,303,0.0,0.0,82,0.00,,---,0.01,VWS V14.01,2013-09-26 02:00:00,
2013-09-25 22:05:00,56.1,51.0,29.89,WNW,303,0.0,0.0,83,0.00,,---,0.01,VWS V14.01,2013-09-26 02:05:00,
2013-09-25 22:10:00,55.7,51.0,29.89,NW,304,0.0,0.0,84,0.00,,---,0.01,VWS V14.01,2013-09-26 02:10:00,
2013-09-25 22:15:00,55.5,50.4,29.89,NW,304,0.0,0.0,83,0.00,,---,0.01,VWS V14.01,2013-09-26 02:15:00,
2013-09-25 22:20:00,55.3,50.2,29.89,NW,304,0.0,0.0,83,0.00,,---,0.01,VWS V14.01,2013-09-26 02:20:00,
2013-09-25 22:25:00,54.9,50.2,29.89,NW,304,0.0,0.0,84,0.00,,---,0.01,VWS V14.01,2013-09-26 02:25:00,
2013-09-25 22:30:00,54.8,50.1,29.89,NW,306,0.0,0.0,84,0.00,,---,0.01,VWS V14.01,2013-09-26 02:30:00,
2013-09-25 22:35:00,54.9,49.8,29.89,NW,306,0.0,0.0,83,0.00,,---,0.01,VWS V14.01,2013-09-26 02:35:00,
2013-09-25 22:40:00,55.0,49.9,29.89,NW,304,0.0,0.0,83,0.00,,---,0.01,VWS V14.01,2013-09-26 02:40:00,
2013-09-25 22:41:00,54.9,50.2,29.89,NW,304,0.0,0.0,84,0.00,,---,0.01,VWS V14.01,2013-09-26 02:41:00,
2013-09-25 22:46:00,54.4,50.0,29.89,NW,304,0.0,0.0,85,0.00,,---,0.01,VWS V14.01,2013-09-26 02:46:00,
2013-09-25 22:50:00,54.2,49.8,29.89,NW,304,0.0,0.0,85,0.00,,---,0.01,VWS V14.01,2013-09-26 02:50:00,
2013-09-25 22:51:00,53.8,49.7,29.89,NW,304,0.0,0.0,86,0.00,,---,0.01,VWS V14.01,2013-09-26 02:51:00,
2013-09-25 22:56:00,53.4,49.6,29.89,NW,304,0.0,0.0,87,0.00,,---,0.01,VWS V14.01,2013-09-26 02:56:00,
2013-09-25 23:00:00,53.4,49.9,29.90,NW,304,0.0,0.0,88,0.00,,---,0.01,VWS V14.01,2013-09-26 03:00:00,
2013-09-25 23:01:00,53.4,50.2,29.90,NW,304,0.0,0.0,89,0.00,,---,0.01,VWS V14.01,2013-09-26 03:01:00,
2013-09-25 23:06:00,53.2,50.0,29.90,NW,304,0.0,0.0,89,0.00,,---,0.01,VWS V14.01,2013-09-26 03:06:00,
2013-09-25 23:10:00,53.1,50.0,29.90,NW,304,0.0,0.0,89,0.00,,---,0.01,VWS V14.01,2013-09-26 03:10:00,
2013-09-25 23:11:00,52.9,49.5,29.90,NW,304,0.0,0.0,88,0.00,,---,0.01,VWS V14.01,2013-09-26 03:11:00,
2013-09-25 23:16:00,52.6,49.5,29.90,NW,304,0.0,0.0,89,0.00,,---,0.01,VWS V14.01,2013-09-26 03:16:00,
2013-09-25 23:20:00,52.5,49.4,29.90,NW,304,0.0,0.0,89,0.00,,---,0.01,VWS V14.01,2013-09-26 03:20:00,
2013-09-25 23:21:00,52.5,49.4,29.90,NW,304,0.0,0.0,89,0.00,,---,0.01,VWS V14.01,2013-09-26 03:21:00,
2013-09-25 23:26:00,52.2,49.4,29.90,NW,304,0.0,0.0,90,0.00,,---,0.01,VWS V14.01,2013-09-26 03:26:00,
2013-09-25 23:30:00,52.2,49.4,29.90,NW,304,0.0,0.0,90,0.00,,---,0.01,VWS V14.01,2013-09-26 03:30:00,
2013-09-25 23:31:00,52.0,49.2,29.90,NW,304,0.0,0.0,90,0.00,,---,0.01,VWS V14.01,2013-09-26 03:31:00,
2013-09-25 23:36:00,52.2,49.7,29.90,NW,317,0.0,0.0,91,0.00,,---,0.01,VWS V14.01,2013-09-26 03:36:00,
2013-09-25 23:40:00,55.0,49.9,29.89,NW,304,0.0,0.0,83,0.00,,---,0.01,VWS V14.01,2013-09-26 03:40:00,
2013-09-25 23:50:00,54.2,49.8,29.89,NW,304,0.0,0.0,85,0.00,,---,0.01,VWS V14.01,2013-09-26 03:50:00,